User: anonymous   Login
Location: Unspecified
(0.0000°N, 0.0000°E)
Time: 10:24:17
(UTC+00:00)
Language:

ETS 8 - Orbit

View from above orbital plane
View from above orbital plane
View from above satellite
View from above satellite

Ground track
Ground track

The orbit data is extracted from the following two-line orbital elements,

1 29656U 06059A   17321.76996734  .00000012  00000-0  00000+0 0  9995
2 29656   5.8692  58.3821 0010673 197.4803 162.3002  0.99003689 39983
Epoch (UTC): 17 November 2017 18:28:45
Eccentricity: 0.0010673
inclination: 5.8692°
perigee height: 36100 km
apogee height: 36191 km
right ascension of ascending node: 58.3821°
argument of perigee: 197.4803°
revolutions per day: 0.99003689
mean anomaly at epoch: 162.3002°
orbit number at epoch: 3998

The dashed part of the orbit path shows where the satellite is in the earth's shadow,  

DLR